• In Österreich
  • Länderverzeichnis
  • Für 7 Tage
  • Wassertemperatur
  • Satellitenkarten
  • Wetterkarte
  • News
  • Widgets
  • user-avatar
    Anmelden

    Stündliche Wetter Zadowice

    Heute, 15 Oktober, Montag

    Zeit Temperatur Niederschläge Wind Luftdruck Luftfeuchtigkeit
    00:00 +14°C° 0 mm 4 m/S 754 mmHg 59%
    01:00 +14°C° 0 mm 4 m/S 754 mmHg 60%
    02:00 +14°C° 0 mm 4 m/S 754 mmHg 61%
    03:00 +14°C° 0 mm 4 m/S 754 mmHg 62%
    04:00 +13°C° 0 mm 4 m/S 754 mmHg 63%
    05:00 +13°C° 0 mm 4 m/S 754 mmHg 63%
    06:00 +13°C° 0 mm 4 m/S 754 mmHg 62%
    07:00 +13°C° 0 mm 4 m/S 754 mmHg 61%
    08:00 +15°C° 0 mm 5 m/S 754 mmHg 53%
    09:00 +17°C° 0 mm 5 m/S 755 mmHg 45%
    10:00 +20°C° 0 mm 6 m/S 755 mmHg 38%
    11:00 +21°C° 0 mm 6 m/S 754 mmHg 36%
    12:00 +22°C° 0 mm 5 m/S 754 mmHg 34%
    13:00 +23°C° 0 mm 5 m/S 754 mmHg 31%
    14:00 +22°C° 0 mm 5 m/S 754 mmHg 35%
    15:00 +21°C° 0 mm 4 m/S 754 mmHg 38%
    16:00 +21°C° 0 mm 3 m/S 753 mmHg 41%
    17:00 +19°C° 0 mm 3 m/S 754 mmHg 43%
    18:00 +18°C° 0 mm 3 m/S 754 mmHg 45%
    19:00 +17°C° 0 mm 3 m/S 754 mmHg 47%
    20:00 +17°C° 0 mm 3 m/S 754 mmHg 48%
    21:00 +16°C° 0 mm 3 m/S 754 mmHg 48%
    22:00 +16°C° 0 mm 3 m/S 754 mmHg 49%
    23:00 +14°C° 0 mm 3 m/S 754 mmHg 50%

    Morgen, 16 Oktober, Dienstag

    Zeit Temperatur Niederschläge Wind Luftdruck Luftfeuchtigkeit
    00:00 +14°C° 0 mm 3 m/S 754 mmHg 51%
    01:00 +13°C° 0 mm 3 m/S 754 mmHg 52%
    02:00 +13°C° 0 mm 3 m/S 754 mmHg 53%
    03:00 +13°C° 0 mm 3 m/S 754 mmHg 54%
    04:00 +12°C° 0 mm 3 m/S 753 mmHg 55%
    05:00 +12°C° 0 mm 3 m/S 754 mmHg 55%
    06:00 +12°C° 0 mm 3 m/S 754 mmHg 56%
    07:00 +12°C° 0 mm 3 m/S 754 mmHg 56%
    08:00 +14°C° 0 mm 3 m/S 754 mmHg 50%
    09:00 +17°C° 0 mm 4 m/S 754 mmHg 45%
    10:00 +19°C° 0 mm 4 m/S 754 mmHg 39%
    11:00 +20°C° 0 mm 4 m/S 754 mmHg 37%
    12:00 +21°C° 0 mm 4 m/S 754 mmHg 35%
    13:00 +22°C° 0 mm 4 m/S 754 mmHg 33%
    14:00 +21°C° 0 mm 4 m/S 754 mmHg 36%
    15:00 +21°C° 0 mm 3 m/S 754 mmHg 39%
    16:00 +20°C° 0 mm 2 m/S 754 mmHg 42%
    17:00 +19°C° 0 mm 2 m/S 754 mmHg 43%
    18:00 +18°C° 0 mm 2 m/S 754 mmHg 45%
    19:00 +16°C° 0 mm 3 m/S 754 mmHg 47%
    20:00 +16°C° 0 mm 2 m/S 754 mmHg 48%
    21:00 +16°C° 0 mm 2 m/S 755 mmHg 50%
    22:00 +15°C° 0 mm 2 m/S 755 mmHg 51%
    23:00 +15°C° 0 mm 2 m/S 755 mmHg 52%

    übermorgen, 17 Oktober, Mittwoch

    Zeit Temperatur Niederschläge Wind Luftdruck Luftfeuchtigkeit
    00:00 +15°C° 0 mm 2 m/S 755 mmHg 53%
    01:00 +15°C° 0 mm 2 m/S 755 mmHg 54%
    02:00 +14°C° 0 mm 2 m/S 755 mmHg 55%
    03:00 +14°C° 0 mm 2 m/S 754 mmHg 56%
    04:00 +14°C° 0 mm 2 m/S 754 mmHg 57%
    05:00 +14°C° 0 mm 2 m/S 754 mmHg 58%
    06:00 +13°C° 0 mm 2 m/S 755 mmHg 59%
    07:00 +13°C° 0 mm 2 m/S 755 mmHg 60%
    08:00 +15°C° 0 mm 2 m/S 755 mmHg 55%
    09:00 +17°C° 0 mm 3 m/S 755 mmHg 51%
    10:00 +19°C° 0 mm 3 m/S 755 mmHg 46%
    11:00 +19°C° 0.1 mm 3 m/S 755 mmHg 48%
    12:00 +20°C° 0.1 mm 3 m/S 754 mmHg 49%
    13:00 +20°C° 0.1 mm 3 m/S 754 mmHg 50%
    14:00 +20°C° 0 mm 2 m/S 754 mmHg 53%
    15:00 +19°C° 0 mm 2 m/S 754 mmHg 56%
    16:00 +20°C° 0 mm 1 m/S 753 mmHg 59%
    17:00 +19°C° 0 mm 1 m/S 754 mmHg 59%
    18:00 +17°C° 0 mm 2 m/S 754 mmHg 59%
    19:00 +16°C° 0 mm 2 m/S 754 mmHg 60%
    20:00 +16°C° 0 mm 2 m/S 754 mmHg 58%
    21:00 +16°C° 0 mm 2 m/S 754 mmHg 57%
    22:00 +16°C° 0 mm 2 m/S 754 mmHg 56%
    23:00 +15°C° 0.2 mm 2 m/S 754 mmHg 61%

    18 Oktober, Donnerstag

    Zeit Temperatur Niederschläge Wind Luftdruck Luftfeuchtigkeit
    00:00 +15°C° 0.2 mm 2 m/S 754 mmHg 66%
    01:00 +15°C° 0.2 mm 2 m/S 754 mmHg 70%
    02:00 +15°C° 0 mm 1 m/S 754 mmHg 72%
    03:00 +15°C° 0 mm 1 m/S 754 mmHg 74%
    04:00 +14°C° 0 mm 1 m/S 754 mmHg 75%
    05:00 +14°C° 0.1 mm 1 m/S 754 mmHg 76%
    06:00 +14°C° 0.1 mm 1 m/S 754 mmHg 76%
    07:00 +14°C° 0.1 mm 1 m/S 754 mmHg 77%
    08:00 +15°C° 0.1 mm 2 m/S 754 mmHg 74%
    09:00 +16°C° 0.1 mm 2 m/S 754 mmHg 72%
    10:00 +16°C° 0.1 mm 2 m/S 754 mmHg 70%
    11:00 +18°C° 0 mm 1 m/S 753 mmHg 66%
    12:00 +19°C° 0 mm 1 m/S 753 mmHg 62%
    13:00 +20°C° 0 mm 1 m/S 753 mmHg 58%
    14:00 +19°C° 0 mm 1 m/S 753 mmHg 59%
    15:00 +19°C° 0 mm 1 m/S 753 mmHg 60%
    16:00 +19°C° 0 mm 1 m/S 753 mmHg 62%
    17:00 +18°C° 0 mm 1 m/S 753 mmHg 65%
    18:00 +16°C° 0 mm 1 m/S 753 mmHg 69%
    19:00 +15°C° 0 mm 1 m/S 753 mmHg 72%
    20:00 +14°C° 0 mm 1 m/S 753 mmHg 74%
    21:00 +14°C° 0 mm 1 m/S 753 mmHg 75%
    22:00 +14°C° 0 mm 1 m/S 754 mmHg 77%
    23:00 +13°C° 0 mm 1 m/S 754 mmHg 77%

    19 Oktober, Freitag

    Zeit Temperatur Niederschläge Wind Luftdruck Luftfeuchtigkeit
    00:00 +13°C° 0 mm 1 m/S 754 mmHg 78%
    01:00 +13°C° 0 mm 1 m/S 754 mmHg 79%
    02:00 +12°C° 0 mm 1 m/S 753 mmHg 80%
    03:00 +12°C° 0 mm 1 m/S 753 mmHg 82%
    04:00 +12°C° 0 mm 1 m/S 753 mmHg 84%
    05:00 +12°C° 0 mm 1 m/S 753 mmHg 85%
    06:00 +12°C° 0 mm 1 m/S 754 mmHg 86%
    07:00 +11°C° 0 mm 1 m/S 754 mmHg 87%
    08:00 +13°C° 0 mm 1 m/S 754 mmHg 80%
    09:00 +15°C° 0 mm 2 m/S 754 mmHg 74%
    10:00 +16°C° 0 mm 2 m/S 754 mmHg 67%
    11:00 +17°C° 0 mm 2 m/S 754 mmHg 64%
    12:00 +18°C° 0 mm 2 m/S 754 mmHg 60%
    13:00 +19°C° 0 mm 3 m/S 754 mmHg 57%
    14:00 +18°C° 0 mm 3 m/S 754 mmHg 60%
    15:00 +17°C° 0 mm 3 m/S 754 mmHg 63%
    16:00 +17°C° 0 mm 2 m/S 753 mmHg 66%
    17:00 +16°C° 0 mm 2 m/S 754 mmHg 69%
    18:00 +16°C° 0 mm 2 m/S 754 mmHg 72%
    19:00 +15°C° 0 mm 2 m/S 754 mmHg 75%
    20:00 +13°C° 0 mm 3 m/S 755 mmHg 75%
    21:00 +13°C° 0 mm 3 m/S 755 mmHg 75%
    22:00 +13°C° 0 mm 3 m/S 755 mmHg 74%
    23:00 +12°C° 0 mm 3 m/S 755 mmHg 73%

    20 Oktober, Samstag

    Zeit Temperatur Niederschläge Wind Luftdruck Luftfeuchtigkeit
    00:00 +12°C° 0 mm 3 m/S 755 mmHg 72%
    01:00 +11°C° 0 mm 3 m/S 755 mmHg 71%
    02:00 +11°C° 0 mm 3 m/S 755 mmHg 72%
    03:00 +10°C° 0 mm 4 m/S 755 mmHg 73%
    04:00 +8°C° 0 mm 4 m/S 756 mmHg 75%
    05:00 +8°C° 0 mm 4 m/S 756 mmHg 78%
    06:00 +7°C° 0 mm 4 m/S 756 mmHg 81%
    07:00 +6°C° 0 mm 4 m/S 757 mmHg 84%
    08:00 +7°C° 0 mm 4 m/S 757 mmHg 80%
    09:00 +8°C° 0 mm 4 m/S 757 mmHg 76%
    10:00 +10°C° 0 mm 4 m/S 757 mmHg 72%
    11:00 +9°C° 0 mm 5 m/S 757 mmHg 69%
    12:00 +10°C° 0 mm 5 m/S 757 mmHg 66%
    13:00 +10°C° 0 mm 5 m/S 757 mmHg 62%
    14:00 +10°C° 0 mm 5 m/S 757 mmHg 62%
    15:00 +10°C° 0 mm 5 m/S 757 mmHg 61%
    16:00 +9°C° 0 mm 5 m/S 757 mmHg 61%
    17:00 +10°C° 0 mm 4 m/S 758 mmHg 61%
    18:00 +10°C° 0 mm 4 m/S 758 mmHg 61%
    19:00 +10°C° 0 mm 3 m/S 758 mmHg 61%
    20:00 +10°C° 0 mm 3 m/S 758 mmHg 64%
    21:00 +10°C° 0 mm 3 m/S 759 mmHg 67%
    22:00 +10°C° 0 mm 3 m/S 759 mmHg 70%
    23:00 +10°C° 0 mm 3 m/S 759 mmHg 72%
    Mehr zeigen